Wind_Speed
18 21 23 22 21 23 26 27 28 28 30 32 34 36 39 42 44 46 48 49 50 50 50 49 49 49 47 46 44 41 39 38 38 38 34 29 26 25 23 20 19 19 19 18
20 22 24 24 26 28 29 30 31 32 33 35 38 41 44 46 49 50 51 51 52 53 53 52 51 50 50 49 46 42 40 38 36 37 34 29 26 24 22 20 17 17 16 15
21 22 23 27 28 28 29 30 32 34 35 37 39 43 47 50 52 53 54 55 56 56 56 55 53 53 52 50 47 43 40 38 36 35 33 29 27 25 23 20 18 16 15 14
25 26 28 29 31 31 33 35 36 38 39 41 44 48 51 55 58 59 60 61 61 60 60 59 59 58 56 52 47 43 40 38 35 33 32 28 27 26 24 21 18 16 15 15
31 32 33 34 34 35 37 38 39 41 43 46 49 54 57 59 63 66 66 66 65 64 64 64 65 65 62 56 49 44 40 38 36 33 30 28 26 25 23 21 19 17 16 15
34 36 38 39 39 39 41 41 40 43 47 52 54 55 59 63 67 71 72 72 70 70 70 71 71 70 66 59 53 48 43 39 37 34 31 29 28 25 23 22 20 17 16 15
38 40 42 42 40 41 43 46 47 51 56 60 63 65 68 71 74 76 77 77 78 79 80 80 76 71 66 60 55 52 48 43 41 37 32 30 28 25 23 21 20 18 17 16
39 40 40 40 42 41 45 49 54 58 62 66 69 72 74 77 79 81 82 83 83 81 78 74 70 67 63 59 55 54 51 45 40 37 33 30 28 26 24 22 20 18 16 15
38 39 41 43 45 47 51 55 58 62 66 70 74 77 80 82 83 82 81 77 70 64 58 56 57 56 56 57 56 55 54 51 45 38 34 32 30 28 26 23 20 18 15 14
37 40 43 46 49 53 56 60 63 67 72 76 79 82 84 84 81 75 66 55 47 45 46 47 48 47 45 45 51 56 56 54 48 42 37 35 33 31 27 24 21 18 16 14
40 44 48 51 55 59 63 66 69 71 74 79 83 83 80 73 65 54 43 41 43 46 47 48 46 42 41 40 42 50 56 56 51 44 39 37 36 33 30 26 23 21 19 17
46 50 54 59 63 67 71 73 76 77 77 76 72 67 61 54 47 42 42 44 46 47 48 48 47 45 44 42 41 43 52 56 52 46 41 39 37 34 32 28 25 24 23 20
56 61 64 68 71 74 77 78 77 73 68 62 56 51 48 44 41 42 46 49 51 51 50 48 46 45 43 40 39 40 48 53 52 48 44 40 37 35 33 30 27 27 26 23
63 67 70 74 77 79 77 72 65 59 54 50 45 42 41 42 45 49 51 53 53 54 51 47 43 42 41 39 37 38 44 50 51 50 47 41 37 36 34 31 29 29 28 26
66 70 74 77 77 75 69 62 56 49 43 39 38 40 42 45 48 51 53 53 53 53 51 48 43 39 38 37 35 36 41 47 49 50 46 41 38 36 35 33 31 30 30 28
71 75 78 78 74 67 61 54 47 40 37 38 40 44 48 51 54 56 55 53 53 52 50 47 43 39 37 35 33 33 38 44 47 46 43 40 38 38 37 35 32 30 29 28
76 78 78 73 66 59 53 47 41 37 37 41 47 51 54 58 61 61 57 54 52 49 45 42 38 35 34 31 29 30 37 43 45 45 43 41 40 39 39 36 33 30 29 28
77 75 70 63 58 54 47 41 37 36 39 45 52 57 61 64 64 61 56 52 48 44 39 35 31 29 28 27 27 31 38 42 43 42 42 41 41 40 39 36 34 32 30 29
73 68 61 56 53 49 43 38 35 37 43 49 56 61 64 62 59 55 52 48 43 36 29 24 22 21 22 23 27 34 38 39 40 40 40 40 40 39 38 35 32 30 28 27
67 60 55 51 47 42 38 35 35 39 46 53 60 62 59 55 51 47 42 35 29 21 16 13 12 15 19 27 33 37 37 36 38 38 39 37 37 37 37 34 31 28 26 25
62 56 51 46 40 35 34 35 37 42 49 55 58 56 53 50 45 38 31 24 16 10 4 2 9 18 27 34 37 37 37 37 37 36 35 33 33 36 37 35 32 28 26 26
59 52 47 41 34 32 32 34 39 44 50 53 53 51 49 47 41 33 25 19 15 12 11 14 21 28 32 35 36 37 37 37 36 35 32 30 31 34 36 35 33 30 27 25
55 49 44 36 31 29 31 34 39 44 48 50 49 47 46 45 39 31 24 20 19 19 21 24 27 27 28 30 34 36 37 37 36 32 28 25 25 29 34 36 34 31 27 24
52 47 40 32 27 27 29 32 37 42 45 45 43 41 40 38 34 29 26 24 23 23 23 23 22 22 25 29 33 36 38 38 33 27 21 19 21 27 34 36 35 31 27 24
50 44 36 28 25 25 28 32 36 40 42 39 37 34 32 30 27 24 23 21 20 20 19 18 20 24 27 30 32 33 34 32 27 22 17 16 20 26 32 34 31 27 24 21
47 40 31 27 26 26 28 32 36 40 39 36 32 28 25 23 23 23 20 18 16 15 16 18 22 26 28 31 33 33 32 28 22 19 18 21 24 28 29 28 26 23 20 18
43 34 25 22 22 23 25 30 35 38 37 33 28 23 22 22 22 22 22 20 16 15 16 19 23 26 30 33 32 30 26 22 19 19 21 23 24 24 24 23 21 20 18 15
Wind_Direction
302 298 298 298 292 287 284 283 282 283 284 291 295 297 298 299 301 301 300 300 300 300 300 299 299 299 300 302 303 304 305 308 313 316 311 302 298 299 303 305 301 303 311 308
310 303 304 301 295 290 287 285 283 284 288 293 296 297 299 301 302 300 299 298 298 298 298 296 295 297 299 302 301 300 301 303 306 309 308 299 295 297 303 307 304 304 308 309
312 307 305 303 301 300 298 294 291 290 292 295 296 297 295 293 293 294 295 295 295 297 297 295 295 297 299 300 299 296 296 297 298 301 303 294 290 294 300 302 301 303 300 296
315 313 314 312 311 310 307 302 301 300 299 297 294 294 293 292 292 294 295 294 293 293 293 291 291 293 295 295 292 289 289 290 289 291 293 288 284 288 294 294 294 298 298 291
315 313 313 311 312 313 308 303 303 302 301 298 295 295 294 292 291 292 294 293 291 289 289 288 287 288 289 288 284 280 281 282 281 281 282 278 275 279 285 286 287 292 295 292
314 314 314 312 315 312 307 305 303 298 295 293 291 290 289 289 291 293 294 294 292 290 289 289 288 288 286 282 276 271 270 271 272 271 270 267 265 269 273 277 279 282 286 286
314 313 312 314 312 308 304 302 298 294 293 292 292 290 289 290 292 293 293 293 291 289 289 290 290 287 283 276 269 264 261 262 261 258 257 257 257 258 261 265 268 270 274 275
312 310 308 306 302 298 293 290 289 290 291 292 292 291 291 292 292 292 292 292 292 291 290 290 288 283 277 270 263 257 253 251 249 246 245 247 249 249 252 254 256 259 263 267
311 308 306 305 304 302 299 298 297 296 294 293 293 293 293 294 295 295 296 297 296 294 294 293 292 288 280 268 257 251 245 242 240 236 237 240 242 240 243 245 247 248 248 249
310 310 310 310 309 307 305 302 299 297 296 295 294 294 294 295 297 297 297 295 295 296 298 298 297 296 293 279 259 246 240 236 235 232 229 233 235 233 235 238 238 234 228 224
317 317 316 315 312 310 308 305 302 299 295 292 293 294 296 296 295 291 286 287 290 293 293 294 296 297 296 290 270 247 237 232 229 225 223 226 228 227 227 230 228 223 215 210
324 323 321 318 316 313 310 307 305 302 301 301 301 300 299 296 292 285 284 287 289 291 291 290 290 289 291 290 279 255 238 231 224 217 216 219 223 221 220 222 221 218 212 208
328 326 323 321 317 313 310 308 308 309 309 309 308 306 306 304 300 296 294 295 295 296 293 289 286 285 284 286 281 261 242 231 221 212 209 212 217 217 214 215 215 213 211 210
330 326 322 319 316 313 313 315 316 317 315 313 313 312 310 308 305 302 300 298 296 296 293 287 283 282 280 280 278 262 244 229 217 209 205 208 211 211 209 210 209 209 210 211
327 324 321 319 317 318 320 321 319 317 315 316 317 317 317 315 313 309 305 301 298 295 291 286 281 279 275 275 272 258 239 224 214 205 201 204 206 207 205 206 205 205 208 210
328 325 322 321 321 323 323 321 319 317 318 321 323 323 321 319 318 314 309 304 300 297 293 288 281 274 270 268 263 248 229 218 210 201 198 200 204 205 203 204 206 205 205 207
329 326 324 323 324 325 323 321 319 319 322 325 325 324 321 319 318 316 311 306 302 300 297 290 279 269 262 257 249 230 215 209 205 201 199 202 206 205 202 201 205 206 206 208
329 327 326 327 328 328 325 322 321 322 324 326 326 326 326 323 320 317 312 307 303 300 297 288 275 262 248 241 227 208 201 199 200 200 203 204 205 203 199 199 203 206 209 213
330 328 328 328 328 327 324 322 324 327 328 328 328 327 326 325 322 319 314 310 306 302 295 281 266 245 229 216 197 187 187 190 194 197 198 200 201 198 195 196 200 204 208 211
331 329 328 328 328 326 324 326 329 332 333 332 331 331 331 330 328 325 322 320 316 308 293 272 241 214 196 179 171 171 174 180 186 190 191 192 194 192 192 194 199 204 205 204
332 330 330 330 330 330 331 334 335 336 337 336 337 339 340 340 340 338 338 340 342 344 340 179 170 167 162 159 159 164 168 173 179 182 185 188 191 192 192 196 200 204 203 201
334 334 334 332 333 337 341 343 342 341 342 343 345 348 350 354 356 357 3 15 32 55 87 119 137 145 149 153 158 163 166 170 174 177 180 185 190 192 194 196 200 201 201 202
337 338 337 335 337 343 348 348 347 347 346 348 352 356 359 3 9 18 29 48 68 86 102 116 127 136 145 152 157 160 162 162 163 166 172 182 193 197 198 199 199 200 203 208
340 341 338 337 339 343 347 350 351 351 352 354 357 1 5 12 22 36 52 69 82 91 101 110 122 134 143 150 153 156 157 157 162 168 180 196 203 200 195 193 194 197 204 212
342 342 338 337 340 343 348 352 354 354 355 357 0 6 13 23 35 49 62 72 83 90 93 103 120 131 137 143 148 153 159 163 167 174 181 181 176 175 176 179 184 193 201 206
343 341 339 339 342 346 350 352 354 356 358 360 4 11 21 34 46 52 54 55 60 71 89 109 121 127 133 139 143 147 152 157 162 166 167 162 159 159 163 170 179 186 190 192
342 339 336 338 340 345 349 352 355 357 359 1 8 16 23 33 41 46 47 46 52 73 100 117 125 129 133 137 139 142 147 152 157 159 162 163 162 162 164 168 172 177 181 184
Height
5847 5843 5840 5838 5836 5833 5830 5827 5824 5821 5817 5814 5811 5808 5804 5799 5795 5791 5786 5780 5775 5771 5766 5762 5758 5754 5751 5748 5744 5741 5736 5732 5727 5722 5716 5712 5709 5707 5704 5701 5698 5696 5693 5690
5843 5839 5836 5833 5829 5826 5823 5820 5817 5814 5811 5807 5803 5798 5793 5789 5784 5779 5774 5768 5764 5759 5755 5750 5746 5742 5739 5736 5733 5730 5727 5723 5720 5715 5710 5705 5703 5700 5697 5695 5693 5691 5689 5686
5838 5834 5830 5826 5823 5820 5817 5813 5810 5806 5804 5798 5793 5788 5783 5777 5771 5765 5760 5755 5750 5746 5741 5736 5732 5729 5726 5724 5721 5719 5716 5713 5710 5707 5703 5699 5696 5694 5692 5689 5688 5686 5684 5683
5830 5828 5824 5821 5815 5813 5808 5804 5800 5797 5792 5787 5781 5774 5768 5762 5755 5749 5744 5739 5734 5729 5725 5721 5717 5714 5713 5711 5709 5707 5704 5702 5700 5697 5695 5692 5689 5687 5686 5684 5682 5680 5679 5679
5823 5819 5817 5814 5810 5805 5799 5794 5791 5786 5780 5774 5768 5760 5753 5746 5739 5732 5726 5720 5715 5710 5706 5703 5700 5698 5697 5696 5695 5694 5692 5690 5689 5687 5685 5683 5681 5681 5680 5678 5676 5675 5674 5674
5816 5811 5808 5806 5801 5794 5788 5783 5779 5772 5766 5759 5751 5744 5738 5730 5721 5714 5707 5701 5694 5689 5684 5681 5679 5677 5677 5677 5677 5677 5677 5677 5677 5677 5675 5674 5673 5673 5673 5671 5670 5669 5669 5669
5808 5803 5798 5793 5789 5783 5778 5773 5765 5757 5750 5742 5733 5725 5717 5709 5701 5693 5686 5679 5672 5665 5660 5656 5653 5651 5651 5653 5655 5658 5659 5661 5663 5663 5663 5663 5663 5665 5665 5664 5664 5664 5664 5664
5800 5795 5791 5784 5778 5772 5766 5757 5750 5742 5733 5724 5715 5705 5696 5687 5679 5671 5663 5655 5646 5638 5633 5629 5625 5625 5625 5626 5629 5634 5639 5643 5646 5648 5650 5651 5653 5656 5658 5657 5657 5658 5658 5659
5791 5786 5778 5771 5765 5757 5750 5743 5734 5724 5714 5703 5693 5683 5673 5664 5655 5646 5638 5630 5621 5614 5609 5605 5600 5597 5598 5600 5603 5609 5616 5622 5628 5632 5636 5639 5642 5646 5649 5650 5651 5651 5652 5654
5780 5774 5767 5761 5752 5743 5734 5725 5715 5703 5692 5680 5669 5659 5649 5640 5631 5623 5616 5609 5602 5596 5591 5587 5581 5577 5575 5574 5577 5584 5592 5600 5608 5615 5621 5626 5631 5636 5641 5643 5644 5646 5647 5649
5773 5765 5756 5748 5737 5727 5717 5706 5694 5683 5671 5659 5647 5636 5626 5616 5609 5602 5597 5593 5588 5582 5577 5572 5567 5563 5559 5557 5556 5559 5568 5577 5588 5598 5606 5613 5619 5625 5631 5635 5637 5639 5641 5644
5762 5752 5742 5731 5719 5707 5695 5684 5672 5659 5648 5637 5623 5610 5601 5593 5588 5585 5582 5577 5572 5567 5561 5556 5552 5549 5546 5543 5541 5542 5548 5557 5568 5581 5591 5600 5607 5614 5621 5626 5629 5633 5636 5639
5747 5736 5725 5713 5700 5687 5674 5662 5649 5635 5621 5610 5601 5591 5583 5577 5573 5569 5565 5559 5554 5549 5544 5540 5536 5533 5531 5529 5528 5529 5532 5541 5552 5565 5577 5587 5595 5603 5611 5617 5621 5626 5630 5634
5734 5722 5710 5696 5681 5667 5652 5639 5626 5615 5604 5594 5586 5579 5572 5566 5561 5554 5548 5541 5535 5529 5525 5522 5519 5517 5516 5514 5514 5515 5519 5527 5539 5552 5564 5575 5585 5594 5602 5609 5614 5619 5624 5628
5721 5707 5693 5677 5662 5647 5632 5620 5610 5601 5592 5584 5577 5569 5562 5554 5546 5538 5530 5521 5514 5509 5505 5502 5500 5500 5499 5498 5499 5500 5505 5514 5527 5540 5553 5564 5575 5584 5593 5601 5607 5613 5618 5622
5706 5691 5673 5657 5642 5628 5616 5605 5596 5588 5581 5573 5566 5558 5549 5540 5531 5521 5512 5502 5494 5488 5484 5481 5480 5482 5482 5482 5483 5486 5493 5504 5517 5530 5543 5555 5566 5576 5585 5594 5601 5607 5612 5617
5688 5671 5655 5639 5627 5615 5603 5593 5585 5578 5571 5563 5555 5546 5536 5525 5514 5503 5492 5483 5474 5468 5463 5460 5461 5463 5464 5467 5470 5475 5484 5496 5510 5523 5536 5548 5559 5569 5579 5588 5596 5602 5607 5612
5669 5652 5637 5623 5611 5602 5592 5584 5577 5570 5562 5554 5544 5533 5521 5508 5494 5483 5472 5463 5455 5449 5445 5442 5443 5446 5450 5454 5458 5466 5478 5491 5505 5519 5531 5543 5554 5563 5573 5582 5590 5596 5601 5606
5655 5640 5627 5616 5605 5594 5585 5577 5570 5563 5555 5545 5533 5521 5507 5492 5477 5464 5453 5444 5437 5432 5430 5429 5430 5434 5439 5445 5452 5463 5476 5490 5503 5516 5528 5539 5549 5559 5568 5577 5584 5591 5596 5602
5644 5631 5618 5608 5598 5588 5579 5572 5565 5557 5548 5536 5523 5509 5493 5478 5463 5450 5438 5430 5424 5420 5420 5421 5424 5429 5435 5442 5452 5465 5477 5490 5503 5514 5526 5536 5547 5556 5565 5573 5580 5586 5592 5598
5634 5621 5610 5599 5590 5583 5575 5568 5560 5552 5541 5529 5514 5499 5484 5469 5455 5442 5432 5425 5420 5418 5418 5420 5424 5430 5437 5446 5457 5469 5481 5493 5504 5516 5526 5536 5545 5554 5562 5570 5577 5583 5589 5594
5624 5612 5602 5591 5584 5579 5572 5565 5557 5548 5537 5524 5510 5495 5481 5467 5453 5442 5433 5427 5424 5423 5424 5427 5432 5438 5446 5455 5464 5474 5485 5496 5507 5518 5527 5536 5544 5552 5560 5567 5574 5580 5585 5590
5616 5605 5595 5586 5580 5576 5570 5563 5555 5546 5535 5522 5509 5495 5483 5470 5458 5449 5441 5437 5435 5435 5437 5441 5445 5451 5457 5464 5472 5481 5491 5501 5511 5521 5529 5536 5543 5549 5556 5564 5571 5577 5582 5587
5610 5601 5591 5584 5578 5574 5569 5562 5554 5544 5534 5523 5511 5500 5489 5480 5470 5461 5455 5451 5450 5451 5453 5456 5459 5463 5467 5473 5481 5489 5498 5507 5517 5525 5531 5536 5540 5545 5552 5560 5567 5574 5580 5585
5606 5597 5588 5583 5578 5573 5567 5560 5553 5545 5536 5526 5516 5507 5498 5490 5482 5476 5472 5469 5466 5466 5466 5468 5470 5473 5477 5483 5490 5498 5506 5514 5522 5528 5533 5536 5539 5543 5550 5558 5566 5573 5578 5583
5603 5595 5587 5581 5576 5571 5565 5559 5553 5545 5536 5528 5520 5513 5505 5499 5493 5489 5485 5482 5479 5477 5477 5478 5479 5482 5486 5491 5498 5505 5512 5519 5525 5530 5534 5538 5543 5548 5554 5561 5567 5572 5577 5581
5601 5593 5586 5582 5577 5572 5566 5560 5553 5546 5537 5530 5524 5518 5512 5506 5502 5498 5495 5492 5489 5487 5487 5488 5490 5492 5496 5500 5506 5512 5518 5523 5528 5532 5537 5542 5547 5552 5557 5563 5567 5572 5576 5580